Location: Kuffner-Sternwarte
(48.2130°N, 16.2960°E)
Time: 22:07:23
(UTC+01:00)

COROT - Pass Details

Date: 15 January 2018
Orbit: 599 x 890 km, 90.0° (Epoch: 19 January)

Event Time Altitude Azimuth Distance (km) Brightness Sun altitude
Rises 17:47:41 0° 195° (SSW) 3,182 9.7 -12.9°
Reaches altitude 10° 17:50:11 10° 203° (SSW) 2,214 9.0 -13.3°
Maximum altitude 17:54:47 41° 273° (W) 993 7.2 -14.0°
Drops below altitude 10° 17:59:06 10° 344° (NNW) 2,069 8.3 -14.7°
Sets 18:01:23 0° 352° (N) 2,949 9.0 -15.1°
